IRIDIUM 33 DEB, 35850

Orbit data source: Space-Track

IRIDIUM 33 DEB, 35850 is space debris in LEO originally from a launch on Sun, 14 Sep 1997 UTC launched from the Tyuratam Missile And Space Complex (TTMTR). The debris from Iridium 33, an American commercial communications satellite, has been tracked extensively since its accidental collision with the defunct Russian satellite Cosmos 2251 in 2009. This event, occurring at high speed in low Earth orbit (LEO), generated thousands of pieces of space debris, significantly increasing the risk of further collisions. The Iridium 33 debris cloud has impacted space traffic management and orbital debris mitigation strategies, making it a subject of ongoing study in space situational awareness.

Loading next visibility...
Identifier
35850, 1997-051TA
Orbit
LEO
Country
Flag of USUS
Related business
Manufacturer
Unknown
Mission
Spacecraft
Bus & Motor
Unknown
Mass
Unknown
Launch date (UTC)
1997-09-14 (28 years ago)
Launch vehicle
Unknown
Launch site
Tyuratam Missile And Space Complex (TTMTR)
Object type
Payload
Rocket body
Debris
Shape & HBR
Unknown shape, 0.1 m
Radar Cross Section
Small (<0.1 m²)

Expand to show TLE details & history
Last TLE update: 1 week ago

TLE from 1 week ago
0 IRIDIUM 33 DEB
1 35850U 97051TA  25340.31268081  .00020775  00000-0  28292-2 0  9992
2 35850  86.3487 347.1693 0008389 210.2670 149.8067 14.78601393712623
Epoch: 2025-12-06T07:30Z
TLE epoch observation values (Epoch: 2025-12-06T07:30:15.621Z)
Latitude
0.00002°
Longitude
159.26199°
Altitude
641.942 km
Speed
7.534 km/s
True Right ascension
23h 08m 40s
True Declination
0° 00' 00"
Sunlit
Object was in daylight at epoch
Visualization orbit readout
Latitude
Unknown
Longitude
Unknown
Altitude
Unknown
Speed
Unknown
Apparent Right ascension
Unknown
Apparent Declination
Unknown
Sunlit
N/A
Visualization observer readout
Local Sidereal Time
00:25:05
Azimuth
Unknown
Elevation
Unknown
Doppler factor
Unknown
Orbital elements
Apogee altitude
636.525 km
Perigee altitude
624.766 km
Semi-major axis
7,008.782 km
Eccentricity
0.00084
Inclination
86.3487°
RAAN
347.1693°
Arg. of periapsis
210.267°
True anomaly
149.855°
Mean anomaly
149.8067°
Eccentric anomaly
149.83086°
Mean motion
3.69896 °/min
Orbital period
97.32 mins
BSTAR
0.0028292

Documentation

Showing up to 5 results
|